Other Public Products
Issued by NWS Charleston, SC

Current Version | Previous Version | Graphics & Text | Print | Product List | Glossary On
Versions: 1 2 3 4 5 6 7 8 9 10 11 12 13 14 15 16 17 18 19 20 21 22 23 24 25 26 27 28 29 30 31 32 33 34 35 36 37 38 39 40 41 42 43 44 45 46 47 48 49 50
686
FPUS82 KCHS 151312
OPUCHS

TEST...KCHS/KSAV Gateway Observations...TEST
National Weather Service Charleston SC
800 AM EST MON JAN 15 2018

NOTE: "fair" indicates few or no clouds below 12,000 feet with no
significant weather and/or obstructions to visibility.

SCZ050-WAZ558-NCZ071-TXZ119-213-PAZ071-DCZ001-FLZ074-172-MI076-
NYZ176-178-MAZ016-IL014-TNZ027-NJZ106-GAZ044-MD014-151400-

...Gateway Observations for Charleston International...

CITY           SKY/WX    TMP DP  RH WIND       PRES   REMARKS
Chas Airport   FAIR      29  13  51 N12       30.50R WCI  19
Seattle        MOCLDY    43  40  89 SE3       30.03F
Charlotte      FAIR      20   7  57 NE6       30.52F WCI  12
Dallas DFW     CLEAR     41  37  86 S9        30.26S
Dallas Love    CLEAR     37  32  82 SE9       30.29S WCI  30
Philladelphia  CLOUDY    19   6  57 NE14      30.63S WCI   6
Wash National  FAIR      19   8  62 N9        30.61R WCI   8
Baltimore      FAIR      16   8  71 N3        30.59S
Miami          FAIR      54  51  90 NW8       30.26R
Detroit        LGT SNOW  16  12  84 SE7       30.36F VSB 1   WCI   6
Newark         MOCLDY    17   7  64 N13       30.66F WCI   4
Laguardia      FAIR      18   9  68 NE14      30.67F WCI   4
J F K          FAIR      18  11  74 NE13      30.67F WCI   5
Boston Logan   LGT SNOW  13   7  77 N14G22    30.75R WCI  -2
Ft. Lauderdale MOCLDY    51  51 100 N8        30.26R
Chicago O`Hare LGT SNOW  19  15  84 S9        30.13F FOG     WCI   8
Chicago Midway LGT SNOW  20  16  84 S10       30.15S FOG     WCI   9
Houston Bush   FAIR      35  34  96 CALM      30.35S
Houston Hobby  FAIR      42  40  92 SE6       30.35R
Nashville      FAIR      25  15  66 S6        30.38S WCI  18
Atlanta        FAIR      27  19  72 E9        30.47R WCI  18

$$

GAZ044-118-TXZ119-213-NCZ071-DCZ001-MDZ014-506-PAZ021-071-NJZ106-
NYZ176-178-MAZ106-OHZ011-021-055-MIZ076-KYZ091-ILZ014-INZ047-
MNZ060-ONZ431-151400-

...Gateway Observations for Savannah International...

CITY           SKY/WX    TMP DP  RH WIND       PRES   REMARKS
Savannah Arpt  FAIR      30  19  63 N6        30.51R WCI  24
Atlanta        FAIR      27  19  72 E9        30.47R WCI  18
Charlotte      FAIR      20   7  57 NE6       30.52F WCI  12
Dallas DFW     CLEAR     41  37  86 S9        30.26S
Houston Bush   FAIR      35  34  96 CALM      30.35S
Wash National  FAIR      19   8  62 N9        30.61R WCI   8
Wash Dulles    FAIR      13   7  77 N7        30.59S WCI   3
Baltimore      FAIR      16   8  71 N3        30.59S
Philadelphia   CLOUDY    19   6  57 NE14      30.63S WCI   6
Newark         MOCLDY    17   7  64 N13       30.66F WCI   4
Laguardia      FAIR      18   9  68 NE14      30.67F WCI   4
J F K          FAIR      18  11  74 NE13      30.67F WCI   5
Boston         LGT SNOW  13   7  77 N14G22    30.75R WCI  -2
Pittsburg      CLOUDY    10   3  73 E7        30.39S WCI  -1
Akron          CLOUDY    12   3  67 SE9       30.35F WCI   0
Cleveland      CLOUDY    14   5  67 SE8       30.40F WCI   3
Cincinnati     CLOUDY    19  17  92 S10       30.29F WCI   7
Columbus       LGT SNOW  15  13  94 S6        30.37S WCI   6
Detroit        LGT SNOW  16  12  84 SE7       30.36F VSB 1   WCI   6
Chicago O`Hare LGT SNOW  19  15  84 S9        30.13F FOG     WCI   8
Minneapolis    LGT SNOW   4  -1  80 NW18      30.29R WCI -16
Indianapolis   SNOW      19  16  88 S9        30.21F VSB 1/2 WCI   8
Toronto Canada MOCLDY    19   9  63 SE20G30   30.50F WCI   4

$$




USA.gov is the U.S. government's official web portal to all federal, state and local government web resources and services.